| time (UTC) | temp F | wind direction | speed MPH | gust MPH | rain 1hr in | rain 24hr in | rain mn in | humidity % | barometer mb |
| 20260504202557 | 56 | 157 | 12.0 | 17.0 | 0.00 | 0.00 | 0.00 | 80 | 1011.3 |
| 20260504202054 | 57 | 207 | 11.0 | 17.0 | 0.00 | 0.00 | 0.00 | 80 | 1011.1 |
| 20260504201551 | 57 | 198 | 12.0 | 17.0 | 0.00 | 0.00 | 0.00 | 80 | 1011.3 |
| 20260504201049 | 57 | 201 | 9.0 | 17.0 | 0.00 | 0.00 | 0.00 | 80 | 1011.4 |
| 20260504200545 | 57 | 185 | 14.0 | 19.0 | 0.00 | 0.00 | 0.00 | 80 | 1011.3 |
| 20260504200042 | 57 | 257 | 12.0 | 17.0 | 0.00 | 0.00 | 0.00 | 80 | 1011.3 |
| 20260504195538 | 57 | 207 | 11.0 | 16.0 | 0.00 | 0.00 | 0.00 | 80 | 1011.4 |
| 20260504195035 | 57 | 205 | 11.0 | 19.0 | 0.00 | 0.00 | 0.00 | 80 | 1011.6 |
| 20260504194531 | 57 | 172 | 12.0 | 15.0 | 0.00 | 0.00 | 0.00 | 80 | 1011.5 |
| 20260504194027 | 57 | 182 | 11.0 | 16.0 | 0.00 | 0.00 | 0.00 | 80 | 1011.6 |
| 20260504193524 | 57 | 215 | 12.0 | 19.0 | 0.00 | 0.00 | 0.00 | 80 | 1011.5 |
| 20260504193022 | 57 | 216 | 12.0 | 22.0 | 0.00 | 0.00 | 0.00 | 80 | 1011.7 |
| 20260504192520 | 57 | 134 | 15.0 | 22.0 | 0.00 | 0.00 | 0.00 | 80 | 1012.0 |
| 20260504192018 | 57 | 196 | 13.0 | 18.0 | 0.00 | 0.00 | 0.00 | 80 | 1011.7 |
| 20260504191516 | 57 | 199 | 13.0 | 17.0 | 0.00 | 0.00 | 0.00 | 80 | 1011.8 |
| 20260504191012 | 57 | 213 | 11.0 | 19.0 | 0.00 | 0.00 | 0.00 | 80 | 1012.1 |
| 20260504190508 | 57 | 209 | 8.0 | 16.0 | 0.00 | 0.00 | 0.00 | 80 | 1012.1 |
| 20260504190004 | 57 | 208 | 13.0 | 18.0 | 0.00 | 0.00 | 0.00 | 80 | 1012.2 |
| 20260504185501 | 57 | 188 | 10.0 | 15.0 | 0.00 | 0.00 | 0.00 | 80 | 1012.2 |
| 20260504184957 | 57 | 195 | 8.0 | 15.0 | 0.00 | 0.00 | 0.00 | 80 | 1012.2 |
| 20260504184453 | 57 | 220 | 11.0 | 13.0 | 0.00 | 0.00 | 0.00 | 79 | 1012.3 |
| 20260504183949 | 57 | 194 | 10.0 | 16.0 | 0.00 | 0.00 | 0.00 | 79 | 1012.5 |
| 20260504183446 | 57 | 168 | 8.0 | 16.0 | 0.00 | 0.00 | 0.00 | 80 | 1012.3 |
| 20260504182944 | 57 | 208 | 10.0 | 15.0 | 0.00 | 0.00 | 0.00 | 80 | 1012.6 |
| 20260504182440 | 56 | 204 | 10.0 | 18.0 | 0.00 | 0.00 | 0.00 | 80 | 1012.5 |
| 20260504181938 | 57 | 227 | 11.0 | 16.0 | 0.00 | 0.00 | 0.00 | 80 | 1012.5 |
| 20260504181435 | 56 | 194 | 11.0 | 18.0 | 0.00 | 0.00 | 0.00 | 80 | 1012.6 |
| 20260504180934 | 57 | 197 | 12.0 | 18.0 | 0.00 | 0.00 | 0.00 | 80 | 1012.6 |
| 20260504180432 | 56 | 195 | 9.0 | 15.0 | 0.00 | 0.00 | 0.00 | 80 | 1012.8 |
| 20260504175930 | 57 | 180 | 10.0 | 14.0 | 0.00 | 0.00 | 0.00 | 80 | 1012.8 |
| 20260504175427 | 57 | 199 | 10.0 | 14.0 | 0.00 | 0.00 | 0.00 | 80 | 1012.9 |
| 20260504174924 | 57 | 190 | 9.0 | 15.0 | 0.00 | 0.00 | 0.00 | 81 | 1012.9 |
| 20260504174421 | 57 | 200 | 12.0 | 15.0 | 0.00 | 0.00 | 0.00 | 80 | 1012.9 |
| 20260504173919 | 57 | 211 | 8.0 | 14.0 | 0.00 | 0.00 | 0.00 | 81 | 1012.9 |
| 20260504173416 | 57 | 199 | 10.0 | 15.0 | 0.00 | 0.00 | 0.00 | 80 | 1012.9 |
| 20260504172913 | 57 | 184 | 8.0 | 15.0 | 0.00 | 0.00 | 0.00 | 81 | 1013.1 |
| 20260504172409 | 57 | 216 | 6.0 | 13.0 | 0.00 | 0.00 | 0.00 | 81 | 1013.0 |
| 20260504171905 | 57 | 185 | 9.0 | 13.0 | 0.00 | 0.00 | 0.00 | 81 | 1013.0 |
| 20260504171403 | 56 | 197 | 10.0 | 13.0 | 0.00 | 0.00 | 0.00 | 81 | 1013.1 |
| 20260504170859 | 56 | 200 | 9.0 | 14.0 | 0.00 | 0.00 | 0.00 | 81 | 1013.1 |
| 20260504170356 | 56 | 192 | 9.0 | 14.0 | 0.00 | 0.00 | 0.00 | 81 | 1013.1 |
| 20260504160315 | 56 | 231 | 10.0 | 16.0 | 0.00 | 0.00 | 0.00 | 80 | 1013.8 |
| 20260504150739 | 56 | 207 | 4.0 | 8.0 | 0.00 | 0.00 | 0.00 | 79 | 1014.4 |
| 20260504150236 | 55 | 201 | 6.0 | 8.0 | 0.00 | 0.00 | 0.00 | 79 | 1014.7 |
| 20260504141206 | 55 | 218 | 7.0 | 8.0 | 0.00 | 0.00 | 0.00 | 77 | 1014.7 |
| 20260504140702 | 55 | 206 | 6.0 | 9.0 | 0.00 | 0.00 | 0.00 | 77 | 1014.8 |
| 20260504140158 | 55 | 212 | 7.0 | 10.0 | 0.00 | 0.00 | 0.00 | 76 | 1014.6 |
| 20260504130626 | 54 | 226 | 9.0 | 13.0 | 0.00 | 0.00 | 0.00 | 73 | 1015.3 |
| 20260504130123 | 54 | 247 | 8.0 | 10.0 | 0.00 | 0.00 | 0.00 | 73 | 1015.2 |
| 20260504110514 | 50 | 232 | 6.0 | 9.0 | 0.00 | 0.00 | 0.00 | 76 | 1015.5 |
| 20260504100436 | 49 | 222 | 7.0 | 14.0 | 0.00 | 0.00 | 0.00 | 79 | 1015.2 |
| 20260504081829 | 51 | 217 | 4.0 | 10.0 | 0.00 | 0.00 | 0.00 | 72 | 1014.6 |
| 20260504081326 | 51 | 216 | 6.0 | 11.0 | 0.00 | 0.00 | 0.00 | 70 | 1014.6 |
| 20260504080822 | 51 | 219 | 8.0 | 13.0 | 0.00 | 0.00 | 0.00 | 67 | 1014.6 |
| 20260504080320 | 51 | 235 | 6.0 | 15.0 | 0.00 | 0.00 | 0.00 | 66 | 1014.7 |
| 20260504070246 | 52 | 298 | 5.0 | 10.0 | 0.00 | 0.00 | 0.00 | 67 | 1014.5 |
| 20260504060207 | 51 | 219 | 6.0 | 9.0 | 0.00 | 0.00 | 0.00 | 76 | 1014.1 |
| 20260504050635 | 51 | 220 | 4.0 | 6.0 | 0.00 | 0.00 | 0.00 | 73 | 1014.1 |
| 20260504050132 | 51 | 215 | 3.0 | 7.0 | 0.00 | 0.00 | 0.00 | 72 | 1013.7 |
| 20260504045629 | 51 | 228 | 4.0 | 10.0 | 0.00 | 0.00 | 0.00 | 72 | 1013.8 |
| 20260504045129 | 51 | 217 | 3.0 | 8.0 | 0.00 | 0.00 | 0.00 | 72 | 1013.9 |
| 20260504044627 | 51 | 255 | 4.0 | 7.0 | 0.00 | 0.00 | 0.00 | 73 | 1013.7 |
| 20260504044124 | 51 | 223 | 3.0 | 8.0 | 0.00 | 0.00 | 0.00 | 74 | 1013.7 |
| 20260504043621 | 51 | 225 | 3.0 | 6.0 | 0.00 | 0.00 | 0.00 | 74 | 1013.7 |
| 20260504043118 | 51 | 219 | 3.0 | 6.0 | 0.00 | 0.00 | 0.00 | 74 | 1013.7 |
| 20260504042615 | 51 | 215 | 4.0 | 6.0 | 0.00 | 0.00 | 0.00 | 75 | 1013.6 |
| 20260504042112 | 51 | 259 | 4.0 | 6.0 | 0.00 | 0.00 | 0.00 | 75 | 1013.7 |
| 20260504041607 | 51 | 229 | 3.0 | 4.0 | 0.00 | 0.00 | 0.00 | 74 | 1013.7 |
| 20260504041104 | 51 | 220 | 4.0 | 7.0 | 0.00 | 0.00 | 0.00 | 74 | 1013.8 |
| 20260504040602 | 51 | 219 | 4.0 | 6.0 | 0.00 | 0.00 | 0.00 | 74 | 1013.7 |
| 20260504040058 | 51 | 216 | 3.0 | 6.0 | 0.00 | 0.00 | 0.00 | 74 | 1013.5 |
| 20260504035555 | 51 | 212 | 2.0 | 6.0 | 0.00 | 0.00 | 0.00 | 73 | 1013.6 |
| 20260504035051 | 51 | 223 | 3.0 | 4.0 | 0.00 | 0.00 | 0.00 | 73 | 1013.6 |
| 20260504034549 | 51 | 212 | 2.0 | 8.0 | 0.00 | 0.00 | 0.00 | 72 | 1013.4 |
| 20260504034046 | 51 | 215 | 2.0 | 4.0 | 0.00 | 0.00 | 0.00 | 72 | 1013.5 |
| 20260504033544 | 51 | 220 | 4.0 | 6.0 | 0.00 | 0.00 | 0.00 | 73 | 1013.5 |
| 20260504033041 | 51 | 213 | 2.0 | 4.0 | 0.00 | 0.00 | 0.00 | 74 | 1013.4 |
| 20260504032538 | 51 | 214 | 2.0 | 2.0 | 0.00 | 0.00 | 0.00 | 74 | 1013.4 |
| 20260504032034 | 51 | 213 | 2.0 | 8.0 | 0.00 | 0.00 | 0.00 | 75 | 1013.5 |
| 20260504031531 | 51 | 221 | 4.0 | 7.0 | 0.00 | 0.00 | 0.00 | 74 | 1013.5 |
| 20260504031027 | 51 | 211 | 4.0 | 6.0 | 0.00 | 0.00 | 0.00 | 73 | 1013.5 |
| 20260504030525 | 52 | 213 | 2.0 | 4.0 | 0.00 | 0.00 | 0.00 | 71 | 1013.4 |
| 20260504030021 | 52 | 222 | 3.0 | 6.0 | 0.00 | 0.00 | 0.00 | 69 | 1013.4 |
| 20260504025518 | 52 | 216 | 3.0 | 6.0 | 0.00 | 0.00 | 0.00 | 67 | 1013.5 |
| 20260504025015 | 52 | 216 | 5.0 | 8.0 | 0.00 | 0.00 | 0.00 | 66 | 1013.4 |
| 20260504024512 | 52 | 203 | 4.0 | 7.0 | 0.00 | 0.00 | 0.00 | 68 | 1013.5 |
| 20260504024009 | 52 | 216 | 3.0 | 6.0 | 0.00 | 0.00 | 0.00 | 68 | 1013.4 |
| 20260504023505 | 52 | 220 | 3.0 | 4.0 | 0.00 | 0.00 | 0.00 | 70 | 1013.4 |
| 20260504023001 | 52 | 217 | 4.0 | 6.0 | 0.00 | 0.00 | 0.00 | 71 | 1013.4 |
| 20260504022457 | 52 | 208 | 3.0 | 6.0 | 0.00 | 0.00 | 0.00 | 72 | 1013.4 |
| 20260504021954 | 52 | 217 | 8.0 | 10.0 | 0.00 | 0.00 | 0.00 | 72 | 1013.4 |
| 20260504021452 | 52 | 208 | 5.0 | 9.0 | 0.00 | 0.00 | 0.00 | 72 | 1013.4 |
| 20260504020949 | 52 | 222 | 7.0 | 10.0 | 0.00 | 0.00 | 0.00 | 70 | 1013.6 |
| 20260504020445 | 53 | 216 | 2.0 | 10.0 | 0.00 | 0.00 | 0.00 | 68 | 1013.4 |
| 20260504015942 | 53 | 215 | 5.0 | 9.0 | 0.00 | 0.00 | 0.00 | 65 | 1013.2 |
| 20260504015438 | 53 | 217 | 6.0 | 11.0 | 0.00 | 0.00 | 0.00 | 63 | 1013.2 |
| 20260504014934 | 53 | 215 | 2.0 | 6.0 | 0.00 | 0.00 | 0.00 | 62 | 1013.3 |
| 20260504014430 | 53 | 213 | 2.0 | 6.0 | 0.00 | 0.00 | 0.00 | 64 | 1013.2 |
| 20260504013927 | 53 | 219 | 3.0 | 8.0 | 0.00 | 0.00 | 0.00 | 67 | 1013.1 |
| 20260504013426 | 54 | 219 | 4.0 | 7.0 | 0.00 | 0.00 | 0.00 | 67 | 1013.2 |
| 20260504012927 | 54 | 224 | 5.0 | 8.0 | 0.00 | 0.00 | 0.00 | 67 | 1012.9 |
| 20260504012425 | 54 | 220 | 5.0 | 7.0 | 0.00 | 0.00 | 0.00 | 67 | 1013.0 |
| 20260504011922 | 55 | 215 | 4.0 | 7.0 | 0.00 | 0.00 | 0.00 | 64 | 1012.9 |
| 20260504011419 | 55 | 216 | 4.0 | 8.0 | 0.00 | 0.00 | 0.00 | 61 | 1013.0 |
| 20260504010915 | 55 | 216 | 6.0 | 7.0 | 0.00 | 0.00 | 0.00 | 61 | 1012.8 |
| 20260504010411 | 54 | 224 | 6.0 | 9.0 | 0.00 | 0.00 | 0.00 | 59 | 1012.9 |
| 20260504005907 | 54 | 232 | 4.0 | 8.0 | 0.00 | 0.00 | 0.00 | 65 | 1012.9 |
| 20260504005404 | 54 | 229 | 3.0 | 7.0 | 0.00 | 0.00 | 0.00 | 62 | 1012.7 |
| 20260504004901 | 55 | 233 | 4.0 | 6.0 | 0.00 | 0.00 | 0.00 | 58 | 1012.7 |
| 20260504004400 | 56 | 217 | 5.0 | 8.0 | 0.00 | 0.00 | 0.00 | 52 | 1012.7 |
| 20260504003855 | 55 | 222 | 6.0 | 9.0 | 0.00 | 0.00 | 0.00 | 52 | 1012.4 |
| 20260504003352 | 55 | 229 | 5.0 | 7.0 | 0.00 | 0.00 | 0.00 | 49 | 1012.5 |
| 20260504002849 | 56 | 233 | 6.0 | 7.0 | 0.00 | 0.00 | 0.00 | 50 | 1012.4 |
| 20260504002346 | 56 | 213 | 4.0 | 9.0 | 0.00 | 0.00 | 0.00 | 48 | 1012.4 |
| 20260504001843 | 56 | 229 | 3.0 | 6.0 | 0.00 | 0.00 | 0.00 | 50 | 1012.3 |
| 20260504001340 | 57 | 213 | 5.0 | 9.0 | 0.00 | 0.00 | 0.00 | 42 | 1012.2 |
| 20260504000837 | 58 | 211 | 1.0 | 3.0 | 0.00 | 0.00 | 0.00 | 32 | 1012.0 |
| 20260504000334 | 58 | 264 | 3.0 | 6.0 | 0.00 | 0.00 | 0.00 | 32 | 1012.1 |
| 20260503235832 | 59 | 263 | 2.0 | 9.0 | 0.00 | 0.00 | 0.00 | 33 | 1012.0 |
| 20260503235329 | 59 | 241 | 3.0 | 3.0 | 0.00 | 0.00 | 0.00 | 33 | 1011.9 |
| 20260503234827 | 59 | 242 | 4.0 | 4.0 | 0.00 | 0.00 | 0.00 | 33 | 1011.8 |
| 20260503234324 | 59 | 230 | 3.0 | 7.0 | 0.00 | 0.00 | 0.00 | 33 | 1011.8 |
| 20260503233822 | 59 | 217 | 6.0 | 9.0 | 0.00 | 0.00 | 0.00 | 32 | 1011.8 |
| 20260503233317 | 59 | 356 | 6.0 | 9.0 | 0.00 | 0.00 | 0.00 | 32 | 1011.7 |
| 20260503232814 | 60 | 234 | 2.0 | 8.0 | 0.00 | 0.00 | 0.00 | 30 | 1011.5 |
| 20260503232312 | 60 | 232 | 3.0 | 9.0 | 0.00 | 0.00 | 0.00 | 30 | 1011.7 |
| 20260503231810 | 60 | 280 | 8.0 | 13.0 | 0.00 | 0.00 | 0.00 | 29 | 1011.5 |
| 20260503231306 | 60 | 202 | 7.0 | 14.0 | 0.00 | 0.00 | 0.00 | 29 | 1011.4 |
| 20260503230802 | 60 | 248 | 6.0 | 10.0 | 0.00 | 0.00 | 0.00 | 28 | 1011.4 |
| 20260503230300 | 60 | 266 | 8.0 | 15.0 | 0.00 | 0.00 | 0.00 | 29 | 1011.5 |
| 20260503225757 | 60 | 286 | 7.0 | 15.0 | 0.00 | 0.00 | 0.00 | 29 | 1011.4 |
| 20260503225252 | 60 | 292 | 8.0 | 16.0 | 0.00 | 0.00 | 0.00 | 28 | 1011.4 |
| 20260503224749 | 60 | 314 | 10.0 | 17.0 | 0.00 | 0.00 | 0.00 | 28 | 1011.3 |
| 20260503224247 | 61 | 314 | 5.0 | 7.0 | 0.00 | 0.00 | 0.00 | 28 | 1011.3 |
| 20260503223744 | 61 | 245 | 6.0 | 17.0 | 0.00 | 0.00 | 0.00 | 28 | 1011.4 |
| 20260503223242 | 61 | 246 | 9.0 | 13.0 | 0.00 | 0.00 | 0.00 | 27 | 1011.3 |
| 20260503222738 | 60 | 288 | 8.0 | 17.0 | 0.00 | 0.00 | 0.00 | 28 | 1011.0 |
| 20260503222236 | 60 | 343 | 8.0 | 10.0 | 0.00 | 0.00 | 0.00 | 29 | 1011.1 |
| 20260503221734 | 61 | 254 | 7.0 | 13.0 | 0.00 | 0.00 | 0.00 | 28 | 1011.2 |
| 20260503221231 | 60 | 213 | 7.0 | 18.0 | 0.00 | 0.00 | 0.00 | 28 | 1011.2 |
| 20260503220728 | 60 | 321 | 9.0 | 16.0 | 0.00 | 0.00 | 0.00 | 28 | 1011.3 |
| 20260503220225 | 60 | 268 | 8.0 | 17.0 | 0.00 | 0.00 | 0.00 | 28 | 1011.2 |
| 20260503215721 | 60 | 221 | 9.0 | 16.0 | 0.00 | 0.00 | 0.00 | 28 | 1011.1 |
| 20260503215219 | 60 | 328 | 11.0 | 16.0 | 0.00 | 0.00 | 0.00 | 29 | 1011.3 |
| 20260503214717 | 60 | 313 | 10.0 | 18.0 | 0.00 | 0.00 | 0.00 | 29 | 1011.3 |
| 20260503214213 | 60 | 267 | 10.0 | 19.0 | 0.00 | 0.00 | 0.00 | 29 | 1011.2 |
| 20260503213711 | 60 | 228 | 5.0 | 15.0 | 0.00 | 0.00 | 0.00 | 29 | 1011.4 |
| 20260503213208 | 60 | 330 | 11.0 | 19.0 | 0.00 | 0.00 | 0.00 | 29 | 1011.3 |
| 20260503212705 | 60 | 336 | 15.0 | 22.0 | 0.00 | 0.00 | 0.00 | 28 | 1011.1 |
| 20260503212203 | 60 | 222 | 7.0 | 13.0 | 0.00 | 0.00 | 0.00 | 29 | 1011.3 |
| 20260503211700 | 60 | 286 | 14.0 | 22.0 | 0.00 | 0.00 | 0.00 | 29 | 1011.1 |
| 20260503211155 | 60 | 214 | 8.0 | 15.0 | 0.00 | 0.00 | 0.00 | 30 | 1011.1 |
| 20260503210652 | 60 | 217 | 5.0 | 13.0 | 0.00 | 0.00 | 0.00 | 30 | 1011.1 |
| 20260503210149 | 60 | 359 | 10.0 | 14.0 | 0.00 | 0.00 | 0.00 | 28 | 1011.1 |
| 20260503205644 | 59 | 314 | 10.0 | 22.0 | 0.00 | 0.00 | 0.00 | 29 | 1011.0 |
| 20260503205141 | 59 | 17 | 9.0 | 13.0 | 0.00 | 0.00 | 0.00 | 29 | 1010.9 |
| 20260503204637 | 59 | 348 | 11.0 | 21.0 | 0.00 | 0.00 | 0.00 | 29 | 1011.0 |
| 20260503204135 | 60 | 292 | 11.0 | 17.0 | 0.00 | 0.00 | 0.00 | 30 | 1011.0 |
| 20260503203632 | 59 | 257 | 9.0 | 18.0 | 0.00 | 0.00 | 0.00 | 30 | 1011.1 |
| 20260503203130 | 59 | 307 | 11.0 | 18.0 | 0.00 | 0.00 | 0.00 | 30 | 1011.0 |